TimeEDT,TemperatureF,Dew PointF,Humidity,Sea Level PressureIn,VisibilityMPH,Wind Direction,Wind SpeedMPH,Gust SpeedMPH,PrecipitationIn,Events,Conditions,WindDirDegrees,DateUTC
12:51 AM,75.9,64.9,69,30.07,10.0,SE,6.9,-,N/A,,Mostly Cloudy,130,2014-08-26 04:51:00
1:51 AM,73.9,64.0,71,30.08,10.0,South,3.5,-,N/A,,Scattered Clouds,170,2014-08-26 05:51:00
2:51 AM,73.0,64.0,73,30.08,10.0,Calm,Calm,-,N/A,,Scattered Clouds,0,2014-08-26 06:51:00
3:51 AM,71.1,64.9,81,30.08,10.0,Calm,Calm,-,N/A,,Partly Cloudy,0,2014-08-26 07:51:00
4:51 AM,71.1,64.0,78,30.08,10.0,ESE,3.5,-,N/A,,Partly Cloudy,120,2014-08-26 08:51:00
5:51 AM,70.0,63.0,78,30.09,10.0,Calm,Calm,-,N/A,,Mostly Cloudy,0,2014-08-26 09:51:00
6:51 AM,71.1,62.1,73,30.10,10.0,SE,4.6,-,N/A,,Mostly Cloudy,140,2014-08-26 10:51:00
7:51 AM,71.1,62.1,73,30.12,10.0,SE,3.5,-,N/A,,Scattered Clouds,140,2014-08-26 11:51:00
8:51 AM,73.9,62.1,66,30.13,10.0,South,6.9,-,N/A,,Scattered Clouds,180,2014-08-26 12:51:00
9:51 AM,75.9,62.1,62,30.14,10.0,South,9.2,-,N/A,,Scattered Clouds,190,2014-08-26 13:51:00
10:51 AM,80.1,63.0,56,30.15,10.0,SSW,5.8,-,N/A,,Scattered Clouds,210,2014-08-26 14:51:00
11:51 AM,82.9,63.0,51,30.15,10.0,SW,5.8,-,N/A,,Scattered Clouds,230,2014-08-26 15:51:00
12:51 PM,84.9,63.0,48,30.14,10.0,SSW,5.8,-,N/A,,Scattered Clouds,200,2014-08-26 16:51:00
1:51 PM,87.1,64.9,48,30.12,10.0,South,8.1,-,N/A,,Scattered Clouds,190,2014-08-26 17:51:00
2:51 PM,88.0,66.0,48,30.09,10.0,SSW,8.1,-,N/A,,Mostly Cloudy,200,2014-08-26 18:51:00
3:51 PM,89.1,66.9,48,30.07,10.0,Variable,6.9,-,N/A,,Mostly Cloudy,0,2014-08-26 19:51:00
4:51 PM,89.1,66.9,48,30.07,10.0,WNW,6.9,-,N/A,,Scattered Clouds,290,2014-08-26 20:51:00
5:51 PM,87.1,66.9,51,30.06,10.0,WNW,4.6,-,N/A,,Scattered Clouds,300,2014-08-26 21:51:00
6:51 PM,87.1,68.0,53,30.06,10.0,SSW,3.5,-,N/A,,Scattered Clouds,200,2014-08-26 22:51:00
7:51 PM,86.0,68.0,55,30.06,10.0,South,4.6,-,N/A,,Mostly Cloudy,180,2014-08-26 23:51:00
8:51 PM,84.0,69.1,61,30.05,10.0,SE,4.6,-,N/A,,Overcast,140,2014-08-27 00:51:00
9:51 PM,82.0,68.0,62,30.05,10.0,SSE,6.9,-,N/A,,Overcast,150,2014-08-27 01:51:00
10:51 PM,80.6,66.2,61,30.08,10.0,SSW,4.6,-,N/A,,Mostly Cloudy,200,2014-08-27 02:51:00
11:51 PM,79.0,66.9,66,30.07,10.0,SSW,3.5,-,N/A,,Mostly Cloudy,200,2014-08-27 03:51:00